Location: Kaarina
(60.4167°N, 22.4167°E)
Time: 12:55:15
(UTC+03:00)

NOSS 6 (C) - Pass Details

Date: 24 August 2019
Orbit: 383 x 1754 km, 63.3° (Epoch: 21 October)

Event Time Altitude Azimuth Distance (km) Brightness Sun altitude
Rises 22:52:57 0° 239° (WSW) 2,478 8.8 -11.9°
Reaches altitude 10° 22:55:10 10° 238° (WSW) 1,509 7.7 -12.1°
Maximum altitude 22:58:21 80° 153° (SSE) 403 4.5 -12.3°
Drops below altitude 10° 23:01:22 10° 65° (ENE) 1,423 7.3 -12.5°
Sets 23:03:24 0° 65° (ENE) 2,317 8.4 -12.7°
